Погода в Уфе

Погода в Уфе : погода сейчас, прогноз погоды и архив. Всё, что Вы хотите узнать о погоде в Уфе!

Хотите узнать прогноз погоды в Уфе? Тогда Вам сюда: Погода в Уфе

Поиск расширенной информации на нашем сайте:

Другие новости

Новости СМИ2

Главная страница сайта

Новости сайта

03.07.2017

Напоминаем, что на нашем специализированном сайте Метеоцентр.Азия вы можете получить высокодетализированные автоматические прогнозы погоды по пунктам России, СНГ и мира в авиационном формате (включающие направление и скорость ветра, видимость, явления погоды, количество и форму облачности, нижнюю и верхнюю границу облачности).


Погода в Уфе - сегодня

Время (UTC), дата Ветер
(°,м/с) 
Видим.   Явления Облачность Т
(°С)
Тd
(°С)
f(%) Тe
(°С)
Pmin
(гПа)
dP
(гПа)
Po
(мм)
O2
(г/м3)
Тmin Tmax R s Состояние
почвы
21 15.10.18 180 (Ю) 4000 м  слаб. ливневой снег  10/10 600 м кучево-дожд. 
[Cb cap]
+1.3 -3 73 +1  1023.6  -0.6  758  304           
00 16.10.18 180 (Ю) 2000 м  ливневой снег  10/10 600 м кучево-дожд. 
[Cb cap]
+0.1 -1.1 92 -1  1023.1  -0.5  757  305           
03 16.10.18 180 (Ю) 4000 м  слаб. ливневой дождь  10/10 600 м кучево-дожд. 
[Cb cap]
+0.5 -0.5 93 1021.8  -1.3  756  304  +0    равномерный
мокрый или
старый снег
100% 
06 16.10.18 180 (Ю) 4000 м  слаб. ливневой дождь  10/10 600 м кучево-дожд. 
[Cb cap]
+1.2 +0.1 92 1021.5  -0.3  756  303           
09 16.10.18 180 (Ю) 10 км  {ливн. осадки}  10/10 1000 м 
[Sc]
+2.5 +1.2 91 +1  1021.3  -0.2  756  302           
12 16.10.18 170 (Ю) 10 км  {ливн. осадки}  10/10 1000 м 
[Sc]
+3.5 +2.2 91 +3  1021  -0.2  756  300           
15 16.10.18 190 (Ю) 10 км  слаб. дождь  10/10 600 м 
[Ns]
+4.2 +2.9 91 +4  1020.5  -0.5  756  299    +4.2  0.7     
18 16.10.18 180 (Ю) 10 км  {дождь}  10/10 1000 м 
[Sc]
+4.6 +3.2 91 +4  1019.3  -0.5  755  299           
21 16.10.18 170 (Ю) 4000 м  слаб. морось  10/10 300 м 
[St]
+5.3 +4.2 93 +6  1017.4  -1.8  753  297           
00 17.10.18 190 (Ю) 4000 м  слаб. морось  10/10 300 м 
[St]
+5.9 +4.8 93 +6  1015.4  -1.9  752  296           
03 17.10.18 170 (Ю) 4000 м  дымка{морось}  9/9 1000 м 
[Sc]
+5.9 +4.8 93 +6  1013.5  -1.9  750  295  +4.2    0.0    влажная 
06 17.10.18 220 (ЮЗ) 10 км  {морось}  9/0 верхняя 
[Ci fib]
+10.5 +6.5 76 +10  1010.5  -2.7  748  289           
09 17.10.18 280 (З) 10 км    9/3 1000 м средняя, верхняя 
[Sc|Ac trans|Ci fib]
+12.5 +5.7 63 +12  1010  -0.4  748  287           
12 17.10.18 310 (СЗ) 5{10}  10 км    10/10 1000 м 
[Sc]
+10.5 +5.6 72 +9  1011.9  1.8  749  290           
15 17.10.18 350 (С) 3{11}  10 км  в посл. час ливневой дождь  3/0 средняя 
[Ac trans]
+7.1 +1.7 68 +6  1015.6  3.5  752  295    +13.4  0.1     
18 17.10.18 330 (СЗ) 10 км    4/0 верхняя 
[Ci fib]
+5 -0.3 69 +5  1018.4  2.6  754  298           
21 17.10.18 320 (СЗ) 10 км    8/0 средняя, верхняя 
[Ac trans|Ci fib]
+3.7 -0.7 73 +2  1019.9  1.5  755  300           
00 18.10.18 280 (З) 10 км    3/0 верхняя 
[Ci fib]
+2 -0.9 81 +1  1021.1  1.1  756  303           
03 18.10.18 300 (СЗ) 10 км    9/3 1000 м средняя, верхняя 
[Sc|Ac trans|Ci fib]
+2.2 -0.8 81 +2  1021  0.1  756  302  +1.6        влажная 
06 18.10.18 320 (СЗ) 10 км    10/10 1000 м 
[Sc]
+2.8 -1 76 +1  1022.4  1.3  757  302           
09 18.10.18 300 (СЗ) 10 км    10/10 1000 м 
[Sc]
+4 -0.9 70 +3  1022.4  757  301           
12 18.10.18 320 (СЗ) 10 км    3/3 1000 м средняя, верхняя 
[Sc|Ac trans|Ci fib]
+5.7 -0.6 64 +5  1021.5  -0.7  756  299           
15 18.10.18 220 (ЮЗ) 10 км    ясно 
-0.6 -2.1 90 -1  1021.7  -0.2  756  306    +5.8       
18 18.10.18 200 (Ю) 10 км    9/6 1000 м средняя 
[Sc|Ac trans]
+1.3 -0.4 88 +2  1020.3  -1.3  755  303           
21 18.10.18 160 (Ю) 10 км    9/9 1000 м 
[Sc]
+3 +0.3 82 +4  1018.9  -1.3  754  301           
Время (UTC), дата Ветер
(°,м/с) 
Видим.   Явления Облачность Т
(°С)
Тd
(°С)
f(%) Тe
(°С)
Pmin
(гПа)
dP
(гПа)
Po
(мм)
O2
(г/м3)
Тmin Tmax R s Состояние
почвы

Для получения пояснительной информации подведите курсор к названию столбца.

ПОГОДА в Уфе - архив

Всё, что Вы хотите узнать о погоде в Уфе - удобно и подробно!

Выберите нужную дату (начиная с 1 января 2015* года) и нажмите кнопку "Найти".
Будут отображены архивные сводки погоды по пункту Уфа, начиная с указанной даты.


Отображать данные в формате CSV (для использования в таблицах Excel)


Внимание! Наш архив погоды предназначен исключительно для личного некоммерческого использования в познавательных целях. Если Вам необходимы официальные справки о состоянии погоды (для производственных, юридических, коммерческих и т.п. целей), обращайтесь в органы Росгидромета.

*Примечание: данная дата относится к архиву по метеостанциям СССР (Россия, СНГ, Балтия).
Архив по метеостанциям Зарубежной Европы и Азии (кроме Китая) хранится 10 дней, по другим регионам земного шара (Китай, Африка, Америка, Австралия, Океания) - 1 день.

Уфа - район местоположения метеостанции


Название, широта, долгота, высота метеостанции:
Уфа (город) 54.7°ш. 55.8°д. 104 м над ур. моря [Российская Федерация]

Дополнительная информация

В oтличие oт бoльшинства пoгoдных сайтoв мы публикуем пoдрoбную метеoинфoрмацию в детальнoм прoфессиoнальнoм фoрмате.

Характеристики температуры и влажнoсти вoздуха измеряются на высoте 2 м в тени вдали oт зданий и деревьев.
Скoрoсть ветра измеряется на высoте 10 м (на урoвне рoста челoвека скoрoсть ветра ниже в 1.5-2 раза). Если метеoстанция нахoдится в гoрoде или в лесу, тo скoрoсть ветра занижена на 2-4 м/с пo сравнению с oткрытым местoм. Скoрoсть ветра над акватoриями крупных рек и oзёр, а также на вершинах хoлмoв на 2-5 м/с выше, чем в oбычных услoвиях.
Атмoсфернoе давление в разных тoчках местнoсти мoжет значительнo oтличаться oт давления на метеoстанции, в зависимoсти oт услoвий рельефа (при пoдъёме на 10 м давление пoнижается примернo на 1 мм рт.ст.).